Regional Weather Roundup
Issued by NWS

Home | Current Version | Previous Version | Graphics & Text | Print | Product List | Glossary Off
Versions: 1 2 3 4 5 6 7 8 9 10 11 12 13 14 15 16 17 18 19 20 21 22 23 24 25 26 27 28 29 30 31 32 33 34 35 36 37 38 39 40 41 42 43 44 45 46 47 48 49

000
ASUS43 KDMX 300507
RWRIA

WEATHER ROUNDUP FOR IOWA
NATIONAL WEATHER SERVICE DES MOINES IA
1200 AM CDT THU JUL 30 2015

NOTE: "FAIR" INDICATES FEW OR NO CLOUDS BELOW 12,000 FEET WITH NO
SIGNIFICANT WEATHER AND/OR OBSTRUCTIONS TO VISIBILITY.

* - THESE STATIONS ARE NOT NWS STATIONS...THUS NOT UNDER NWS
QUALITY CONTROL.  THEY ALSO DO NOT REPORT WEATHER SUCH
AS PRECIPITATION OR FOG.

IAZ001>003-012>014-020>022-031>034-043>046-300600-
   NORTHWEST IOWA

CITY           SKY/WX    TMP DP  RH WIND       PRES   REMARKS
CARROLL *      CLEAR     66  61  82 SW9       30.14R
CHEROKEE *     CLEAR     64  61  88 CALM      30.13R
DENISON *      CLEAR     66  61  82 SW5       30.13S
LE MARS *      CLEAR     63  61  94 CALM      30.13R
ORANGE CITY *  CLEAR     63  55  77 CALM      30.12S
SHELDON *      CLEAR     59  57  94 SW3       30.11R
SIOUX CITY     CLEAR     67  60  78 SW8       30.13S
SPENCER        CLEAR     62  58  86 W6        30.12R
STORM LAKE *   CLEAR     64  59  82 SW7       30.14S
$$

IAZ055>058-069>071-079>083-090>094-300600-
   SOUTHWEST IOWA

CITY           SKY/WX    TMP DP  RH WIND       PRES   REMARKS
ATLANTIC *     CLEAR     64  63  94 SW3       30.16S
AUDUBON *      CLEAR     63  57  82 CALM      30.17R
CLARINDA *     CLEAR     64  64 100 CALM      30.18S
COUNCIL BLFS * CLEAR     70  61  73 SW8       30.17R
CRESTON *      CLEAR     66  61  82 SW5       30.17S
HARLAN  *      CLEAR     63  63 100 CALM      30.19R
LAMONI         CLEAR     71  60  68 W5        30.17R
RED OAK *      CLEAR     63  63 100 CALM      30.17R
SHENANDOAH *     N/A     66  64  94 CALM      30.17S
$$

IAZ047>049-059>061-072>074-084-300600-
   CENTRAL IOWA

CITY           SKY/WX    TMP DP  RH WIND       PRES   REMARKS
AMES           CLEAR     64  61  90 W8        30.11S
ANKENY *       CLEAR     70  61  73 W6        30.12S
CHARITON *     CLEAR     66  61  82 W5        30.15S
DES MOINES     CLEAR     69  61  75 SW5       30.12F
GRINNELL*      CLEAR     64  59  82 SW8       30.13S
KNOXVILLE *    CLEAR     66  61  82 SW7       30.12S
MARSHALLTOWN   CLEAR     64  60  87 SW6       30.11R
PELLA *        CLEAR     68  65  89 W5        30.14S
PERRY *          N/A     63  61  94 SW6       30.13S
$$

IAZ004>006-015-016-023>025-035-036-300600-
   NORTH CENTRAL IOWA

CITY           SKY/WX    TMP DP  RH WIND       PRES   REMARKS
ALGONA *       CLEAR     64  61  88 W5        30.11R
CLARION *      CLEAR     61  59  94 SW7       30.11R
ESTHERVILLE    CLEAR     60  58  92 W7        30.10R
FORT DODGE *   CLEAR     64  57  77 SW3       30.12S
MASON CITY     CLEAR     70  61  73 W10       30.10R
FOREST CITY *  CLEAR     63  57  82 CALM      30.10R
IOWA FALLS *     N/A     66  61  82 SW9       30.12S
$$

IAZ007>011-017>019-026>030-037>042-050>054-066-300600-
   NORTHEAST IOWA

CITY           SKY/WX    TMP DP  RH WIND       PRES   REMARKS
CEDAR RAPIDS   CLEAR     65  62  90 SW7       30.09R
CHARLES CITY * CLEAR     66  61  82 W9        30.09R
CLINTON *      CLEAR     61  57  88 W9        30.10R
DECORAH *      CLEAR     68  59  73 VRB6G12   30.05S
DUBUQUE        CLEAR     65  59  81 W10       30.08R
MONTICELLO *   CLEAR     61  61 100 CALM      30.08R
OELWEIN *      CLEAR     64  61  88 W7        30.09R
WATERLOO       CLEAR     67  59  75 W5        30.08R
$$

IAZ064-065-067-068-078-300600-
   EAST CENTRAL IOWA

CITY           SKY/WX    TMP DP  RH WIND       PRES   REMARKS
DAVENPORT      CLEAR     65  61  87 W6        30.09R
IOWA CITY      CLEAR     66  60  81 W6        30.11R
MT. PLEASANT * CLEAR     66  61  82 W5        30.13R
MUSCATINE *    CLEAR     68  61  77 W8        30.10R
QUAD CITIES    CLEAR     67  60  78 CALM      30.09R
$$

IAZ062-063-075>077-085>089-095>099-300600-
   SOUTHEAST IOWA

CITY           SKY/WX    TMP DP  RH WIND       PRES   REMARKS
BURLINGTON     CLEAR     69  63  81 W3        30.12R
FAIRFIELD *    CLEAR     66  61  82 W6        30.13R
FORT MADISON * CLEAR     70  63  78 W5        30.13S
KEOKUK *       CLEAR     68  63  83 W6        30.12S
OSKALOOSA *      N/A     63  61  94 W5        30.13S
CENTERVILLE *  CLEAR     66  63  88 W7        30.17R
OTTUMWA        CLEAR     64  61  90 W5        30.12R
WASHINGTON *   CLEAR     66  63  88 W7        30.13R
$$

ABBREVIATIONS USED IN REMARKS
   TC - TEMPERATURES IN CELSIUS
  WCI - WIND CHILL INDEX
   HX - HEAT INDEX
  VSB - VISIBILITY
$$



USA.gov is the U.S. government's official web portal to all federal, state and local government web resources and services.